Location: ????????
(60.5616°N, 46.8254°E)
Time: 14:51:35
(UTC+00:00)

Cosmos 1937 Rocket - Pass Details

Date: 18 February 2020
Orbit: 747 x 780 km, 74.0° (Epoch: 27 March)

Event Time Altitude Azimuth Distance (km) Brightness Sun altitude
Rises 15:19:53 0° 321° (NW) 3,276 7.3 -11.8°
Reaches altitude 10° 15:22:31 10° 330° (NNW) 2,343 6.4 -12.1°
Maximum altitude 15:27:21 34° 35° (NE) 1,266 4.3 -12.7°
Enters shadow 15:30:28 19° 89° (E) 1,787 4.7 -13.1°
